Weather History for Decatur, AL

Change the Weather History Date:

Wednesday, February 6, 2013

  Actual Average Record
Temperature  
Mean Temperature 48 °F -  
Max Temperature 63 °F 49 °F 70 °F (1957)
Min Temperature 32 °F 30 °F 9 °F (1988)
Degree Days  
Heating Degree Days 18    
Moisture  
Dew Point 36 °F    
Average Humidity 73    
Maximum Humidity 100    
Minimum Humidity 34    
Precipitation  
Precipitation 0.00 in - - ()
Sea Level Pressure  
Sea Level Pressure 30.14 in    
Wind  
Wind Speed 1 mph (ENE)    
Max Wind Speed 7 mph    
Max Gust Speed -    
Visibility 7 miles    
Events Fog    
Averages and records for this station are not official NWS values.
T = Trace of Precipitation, MM = Missing Value Source: NWS Daily Summary

Daily Weather History Graph

Daily Weather History Graph

Search for Another Location

Airport:

Trip Planner

Search our weather history database for the weather conditions in past years. The results will help you decide how hot, cold, wet, or windy it might be!

Date:

Astronomy

Feb. 06, 2013 Rise Set
Actual Time 6:41 AM CST 5:22 PM CST
Civil Twilight 6:15 AM CST 5:48 PM CST
Nautical Twilight 5:45 AM CST 6:18 PM CST
Astronomical Twilight 5:16 AM CST 6:48 PM CST
Moon 3:20 AM CST (2/6) 1:44 PM CST (2/6)
Length of Visible Light 11h 33m
Length of Day
10h 40m
Waning Crescent, 17% of the Moon is Illuminated
Feb 6
Waning Crescent
Feb 10
New
Feb 17
First Quarter
Feb 25
Full
Mar 4
Last Quarter

Hourly Weather History & Observations

Time (CST) Temp. Dew Point Humidity Pressure Visibility Wind Dir Wind Speed Gust Speed Precip Events Conditions
12:09 AM 37.4 °F 37.4 °F 100% 30.08 in 4.0 mi Calm Calm - N/A   Mostly Cloudy
12:33 AM 37.4 °F 35.6 °F 93% 30.08 in 1.5 mi Calm Calm - N/A   Overcast
12:41 AM 37.4 °F 35.6 °F 93% 30.08 in 0.5 mi Calm Calm - N/A Fog Fog
1:53 AM 37.0 °F 36.0 °F 96% 30.09 in 0.2 mi Calm Calm - N/A Fog Fog
2:53 AM 37.0 °F 37.0 °F 100% 30.10 in 0.2 mi Calm Calm - N/A Fog Fog
3:53 AM 37.9 °F 37.9 °F 100% 30.12 in 0.2 mi Calm Calm - N/A Fog Fog
4:53 AM 37.0 °F 36.0 °F 96% 30.14 in 0.2 mi Calm Calm - N/A Fog Fog
5:51 AM 33.8 °F 32.0 °F 93% 30.16 in 2.5 mi Calm Calm - N/A   Scattered Clouds
5:53 AM 33.1 °F 32.0 °F 96% 30.17 in 3.0 mi Calm Calm - N/A   Scattered Clouds
6:15 AM 32.0 °F 32.0 °F 100% 30.16 in 2.0 mi Calm Calm - N/A   Clear
6:25 AM 32.0 °F 30.2 °F 93% 30.16 in 4.0 mi Calm Calm - N/A   Clear
6:53 AM 32.0 °F 30.9 °F 96% 30.17 in 7.0 mi Calm Calm - N/A   Clear
7:53 AM 37.0 °F 36.0 °F 96% 30.19 in 7.0 mi Calm Calm - N/A   Clear
8:53 AM 45.0 °F 41.0 °F 86% 30.20 in 10.0 mi Calm Calm - N/A   Clear
9:53 AM 51.1 °F 42.1 °F 71% 30.21 in 10.0 mi East 4.6 mph - N/A   Clear
10:53 AM 55.9 °F 39.9 °F 55% 30.22 in 10.0 mi East 4.6 mph - N/A   Clear
11:53 AM 57.9 °F 39.0 °F 49% 30.20 in 10.0 mi Calm Calm - N/A   Clear
12:53 PM 60.1 °F 36.0 °F 41% 30.17 in 10.0 mi Calm Calm - N/A   Clear
1:53 PM 63.0 °F 37.0 °F 38% 30.15 in 10.0 mi Variable 4.6 mph - N/A   Clear
2:53 PM 63.0 °F 34.0 °F 34% 30.13 in 10.0 mi ESE 5.8 mph - N/A   Clear
3:53 PM 63.0 °F 35.1 °F 35% 30.13 in 10.0 mi Calm Calm - N/A   Clear
4:53 PM 61.0 °F 37.9 °F 42% 30.12 in 10.0 mi Calm Calm - N/A   Clear
5:53 PM 51.1 °F 39.0 °F 63% 30.12 in 10.0 mi NE 4.6 mph - N/A   Clear
6:53 PM 46.9 °F 37.0 °F 68% 30.14 in 10.0 mi NE 3.5 mph - N/A   Clear
7:53 PM 53.1 °F 36.0 °F 52% 30.13 in 10.0 mi ENE 4.6 mph - N/A   Clear
8:53 PM 48.0 °F 39.9 °F 74% 30.13 in 10.0 mi ENE 5.8 mph - N/A   Clear
9:53 PM 52.0 °F 36.0 °F 54% 30.11 in 10.0 mi NE 6.9 mph - N/A   Clear
10:53 PM 52.0 °F 35.1 °F 53% 30.09 in 10.0 mi ENE 5.8 mph - N/A   Clear
11:53 PM 50.0 °F 36.0 °F 59% 30.09 in 10.0 mi East 4.6 mph - N/A   Clear